User: anonymous   Login
Location: Unspecified
(0.0000°N, 0.0000°E)
Time: 03:22:57
(UTC+02:00)
Language:

Cosmos 1538 Rocket - Orbit

View from above orbital plane
View from above orbital plane
View from above satellite
View from above satellite

Ground track
Ground track

The orbit data is extracted from the following two-line orbital elements,

1 14760U 84019B   14296.82530838  .00000375  00000-0  13869-3 0  4517
2 14760 074.0438 096.1468 0028049 195.9149 266.7056 14.35550385604754
Epoch (UTC): 23 October 2014 19:48:26
Eccentricity: 0.0028049
inclination: 74.0438°
perigee height: 753 km
apogee height: 793 km
right ascension of ascending node: 96.1468°
argument of perigee: 195.9149°
revolutions per day: 14.35550385
mean anomaly at epoch: 266.7056°
orbit number at epoch: 60475

The dashed part of the orbit path shows where the satellite is in the earth's shadow,  

DLR